loading
DOY 203 | 2024-07-21T09:27:06Z

THOR AGENA D R/B, 1245

Orbit data source: Space-Track

THOR AGENA D R/B, 1245 is space debris in LEO originally from a launch on Tue, 09 Mar 1965 UTC launched from the Air Force Western Test Range (AFWTR). Debris objects in space refer to the collection of defunct objects orbiting the Earth. Examples of debris include non-operational satellites, rocket bodies, and fragments generated from explosions, collisions, or faulty payload assembly.

Loading next visibility...
Loading greatness...
THOR AGENA D R/B details
NORAD ID1245
COSPAR ID
1965-016J
Orbit
LEO
Last TLE update5 hours ago
Origin
Flag of USUSAF SSD (US)
ManufacturerLMSC
BusAgena D
MotorUnknown
Mass600 kg wet, 600 kg dry
Launch date (UTC)
1965-03-09 (59 years ago)
Launch vehicleUnknown
Launch site
Air Force Western Test Range (AFWTR)
Object type
Payload
Rocket body
Debris
Radar Cross Section5.6 m², Large (>1 m²)
Predictive object data (real-time)
Latitude-15.59336°
Longitude139.89694°
Altitude909.946 km
Speed7.396 km/s
Apparent Right ascension09h 58m 31s
Apparent Declination-26° 54' 01"
Sunlit
Object is in daylight
Predictive observer data (real-time)
Local Sidereal Time22:25:12
Azimuth25.077° NE
Elevation-75.854°
Doppler factor1
Orbital elements
Apogee918.231 km
Perigee883.699 km
Semi-major axis7,279.102 km
Eccentricity0.002372
Inclination70.0779°
RAAN151.2099°
Arg. of periapsis249.1557°
True anomaly110.9549°
Mean anomaly110.7009°
Mean motion3.49483 °/min
BSTAR0.00020743
Period103.01 mins
Definitive object data (Epoch: 2024-07-21T04:22:36.929Z)
Latitude-0.00008°
Longitude146.12285°
Altitude911.392 km
Speed7.393 km/s
True Right ascension10h 04m 50s
True Declination0° 00' 00"
Sunlit
Object was in daylight at TLE epoch
TLE from 5 hours ago
0 THOR AGENA D R/B
1  1245U 65016J   24203.18237187  .00000239  00000-0  20743-3 0  9991
2  1245  70.0779 151.2099 0023720 249.1557 110.7009 13.97365821 23534
Epoch: 2024-07-21T04:22Z
No data available

THOR AGENA D R/B Visibility forecast

Observer location: 39.9160978°, -105.1181434

THOR AGENA D R/B is not visible in the next 10 days
Span
Click to sort rows by Start time (UTC) header in descending order
Start Az.
Max El. time (UTC)
Max El. Az.
Max El.
End time (UTC)
End Az.